EKRAN 2 DEB, 29014

Orbit data source: Space-Track

EKRAN 2 DEB, 29014 is space debris in GEO originally from a launch on Tue, 20 Sep 1977 UTC launched from the Tyuratam Missile And Space Complex (TTMTR). Debris objects in space refer to the collection of defunct objects orbiting the Earth. Examples of debris include non-operational satellites, rocket bodies, and fragments generated from explosions, collisions, or faulty payload assembly.

Loading next visibility...
Identifier
29014, 1977-092K
Orbit
GEO
Country
Flag of CISCIS
Related business
Manufacturer
Unknown
Mission
Spacecraft
Bus & Motor
Unknown
Mass
Unknown
Launch date (UTC)
1977-09-20 (48 years ago)
Launch vehicle
Unknown
Launch site
Tyuratam Missile And Space Complex (TTMTR)
Object type
Payload
Rocket body
Debris
Shape & HBR
Unknown shape, 1.1 m
Radar Cross Section
Medium (>0.1 m² and <1 m²)

Expand to show TLE details & history
Last TLE update: 2 days ago

TLE from 2 days ago
0 EKRAN 2 DEB
1 29014U 77092K   25306.49368661 -.00000250  00000-0  00000+0 0  9997
2 29014   4.7194 277.3517 0020498 339.1552 253.7650  1.00119032 45000
Epoch: 2025-11-02T11:50Z
TLE epoch observation values (Epoch: 2025-11-02T11:50:54.523Z)
Latitude
-3.7776°
Longitude
-69.82449°
Altitude
35,853.59 km
Speed
3.071 km/s
True Right ascension
09h 59m 38s
True Declination
-3° 46' 26"
Sunlit
Object was in daylight at epoch
Visualization orbit readout
Latitude
Unknown
Longitude
Unknown
Altitude
Unknown
Speed
Unknown
Apparent Right ascension
Unknown
Apparent Declination
Unknown
Sunlit
N/A
Visualization observer readout
Local Sidereal Time
21:09:28
Azimuth
Unknown
Elevation
Unknown
Doppler factor
Unknown
Orbital elements
Apogee altitude
35,917.05 km
Perigee altitude
35,744.011 km
Semi-major axis
42,208.667 km
Eccentricity
0.00205
Inclination
4.7194°
RAAN
277.3517°
Arg. of periapsis
339.1552°
True anomaly
253.53964°
Mean anomaly
253.765°
Eccentric anomaly
253.6523°
Mean motion
0.25029 °/min
Orbital period
1,438.34 mins
BSTAR
0
Loading maneuver chart data...
Computing Atmospheric mass density...
Loading historical data...
Loading historical data...
Loading historical data...
Loading historical data...
Loading historical data...
Loading historical data...
Loading historical data...

Documentation

Showing up to 5 results
|